Regional Weather Roundup
Issued by NWS

Home | Current Version | Previous Version | Text Only | Print | Product List | Glossary On
Versions: 1 2 3 4 5 6 7 8 9 10 11 12 13 14 15 16 17 18 19 20 21 22 23 24 25 26 27 28 29 30 31 32 33 34 35 36 37 38 39 40 41 42 43 44 45 46 47 48 49 50
000
ASUS43 KLSX 241657
RWRMO

WEATHER SUMMARY FOR MISSOURI
NATIONAL WEATHER SERVICE SPRINGFIELD MO
1200 PM CDT FRI MAR 24 2017

NOTE: "FAIR" INDICATES FEW OR NO CLOUDS BELOW 12,000 FEET WITH NO
       SIGNIFICANT WEATHER AND/OR OBSTRUCTIONS TO VISIBILITY.
       CURRENT SKY AND/OR WEATHER CONDITIONS ARE NOT AVAILABLE FOR
       CHILLICOTHE AND FARMINGTON.

MOZ001>031-035>038-043-044-053-054-241800-
...NORTHERN AND WESTERN MISSOURI...

CITY           SKY/WX    TMP DP  RH WIND       PRES   REMARKS
KANSAS CTY INT TSTM      60  55  83 CALM      29.87R
KANSAS C DTWN  TSTM      64  52  64 W14G21    29.86R
LEE`S SUMMIT   CLOUDY    68  49  50 SW23G33   29.87R
ST JOSEPH      CLOUDY    59  56  89 NE5       29.87F
CHILLICOTHE      N/A     69  44  40 S12       29.89R

$$
MOZ066>068-077>081-088>096-101>105-241800-
...SOUTHWEST MISSOURI...

CITY           SKY/WX    TMP DP  RH WIND       PRES   REMARKS
SPRINGFIELD    LGT RAIN  65  53  65 S18       29.95R
JOPLIN         CLOUDY    63  57  81 S20G25    29.90F
BRANSON        CLOUDY    68  50  52 S16G32    30.00S

$$
MOZ032>034-039>042-045>050-055>058-069>072-241800-
...CENTRAL MISSOURI...

CITY           SKY/WX    TMP DP  RH WIND       PRES   REMARKS
COLUMBIA       NOT AVBL
JEFFERSON CITY CLOUDY    76  48  37 S22G29    29.93R
ROLLA          CLOUDY    72  52  49 S23G33    29.97R
SEDALIA        CLOUDY    72  46  39 S22G31    29.91R
WARRENSBURG    PTSUNNY   70  45  40 S20G29    29.87S

$$
MOZ051-052-059>065-241800-
...EAST CENTRAL MISSOURI...

CITY           SKY/WX    TMP DP  RH WIND       PRES   REMARKS
ST LOUIS INTL  PTSUNNY   77  54  44 S23G31    29.98F

$$
MOZ072>076-082>087-097>100-106>115-241800-
...SOUTH CENTRAL AND SOUTHEAST MISSOURI...

CITY           SKY/WX    TMP DP  RH WIND       PRES   REMARKS
CAPE GIRARDEAU PTSUNNY   70  59  68 S22       30.13F
POPLAR BLUFF   CLOUDY    72  61  68 S16G31    30.11F
WEST PLAINS    PTSUNNY   70  55  59 S15G36    30.05S

$$


USA.gov is the U.S. government's official web portal to all federal, state and local government web resources and services.